Location: Natural Bridges National Monument
(37.6093°N, 109.9767°W)
Time: 12:28:08
(UTC-06:00)

Cosmos 1727 Rocket - Visible Passes

Search period start: 27 June 2016 00:00
Search period end: 07 July 2016 00:00
Orbit: 961 x 996 km, 82.9° (Epoch: 26 June)

Date Brightness Start Highest point End Pass type
(mag) Time Alt. Az. Time Alt. Az. Time Alt. Az.
27 Jun 4.0 02:29:48 10° N 02:36:03 74° E 02:37:19 57° SSE visible
27 Jun 5.7 04:17:39 10° NW 04:20:40 14° W 04:22:02 13° W visible
28 Jun 5.8 01:12:14 10° NNE 01:16:28 19° ENE 01:18:33 16° E visible
28 Jun 4.0 02:56:16 10° NNW 03:02:21 59° W 03:03:16 53° SW visible
29 Jun 5.0 01:37:33 10° NNE 01:43:13 35° ENE 01:44:31 32° ESE visible
29 Jun 4.9 03:23:10 10° NNW 03:28:29 31° W 03:29:13 30° W visible
30 Jun 4.0 02:03:32 10° N 02:09:44 67° E 02:10:30 61° ESE visible
30 Jun 5.6 03:50:55 10° NW 03:54:26 16° W 03:55:12 15° W visible
01 Jul 5.9 00:46:14 10° NNE 00:50:05 17° ENE 00:51:47 15° E visible
01 Jul 3.9 02:29:54 10° NNW 02:36:04 66° W 02:36:29 64° WSW visible
02 Jul 5.1 01:11:23 10° NNE 01:16:51 31° ENE 01:17:47 30° E visible
02 Jul 4.8 02:56:44 10° NNW 03:02:13 34° W 03:02:30 34° W visible
03 Jul 4.1 01:37:16 10° N 01:43:24 60° E 01:43:49 58° E visible
03 Jul 5.6 03:24:15 10° NW 03:28:12 18° W 03:28:32 18° W visible
04 Jul 6.0 00:20:18 10° NE 00:23:40 15° ENE 00:25:08 14° E visible
04 Jul 3.9 02:03:34 10° N 02:09:46 74° W 02:09:51 74° WSW visible
05 Jul 5.2 00:45:13 10° NNE 00:50:29 28° ENE 00:51:11 28° E visible
05 Jul 4.7 02:30:18 10° NNW 02:35:54 38° W 02:35:54 38° W visible
06 Jul 4.3 01:11:00 10° N 01:17:04 53° E 01:17:15 53° E visible
06 Jul 5.5 02:57:40 10° NW 03:01:58 20° W 03:01:59 20° W visible
